period_start,C,m1,H,J0,J1,J2,J3,J4,J5,JA,JB,JC,JD,JJ,JK,JN,#
2018-05-31 00:00:46,0.01,0.11,0.00,23.80,27.48,30.64,13.80,46.49,1010.28,2026.96,3384.00,3057.01,3520.56,599.73,590.38,17.98,0000 0000 0000 0000 000000
2018-05-31 00:05:47,0.00,0.11,0.00,23.81,27.50,30.61,13.78,46.42,1010.28,2026.93,3383.98,3057.00,3520.15,599.78,590.48,18.03,0000 0000 0000 0000 000000
2018-05-31 00:10:48,-0.01,0.11,0.00,23.82,27.50,30.61,13.76,46.47,1010.29,2026.73,3383.89,3056.99,3520.01,599.71,590.37,18.08,0000 0000 0000 0000 000000
2018-05-31 00:15:49,0.00,0.11,0.00,23.84,27.52,30.63,13.82,46.46,1010.28,2026.60,3383.52,3056.97,3520.00,600.00,590.63,18.13,0000 0000 0000 0000 000000
2018-05-31 00:20:50,0.01,0.11,0.00,23.85,27.52,30.64,13.81,46.51,1010.28,2026.62,3383.06,3056.64,3520.00,599.82,590.38,18.18,0000 0000 0000 0000 000000
2018-05-31 00:25:51,0.01,0.11,0.00,23.87,27.54,30.67,13.78,46.42,1010.29,2026.55,3382.99,3056.16,3519.93,599.84,590.44,18.23,0000 0000 0000 0000 000000
2018-05-31 00:30:53,-0.02,0.11,0.00,23.88,27.55,30.67,13.82,46.40,1010.29,2026.34,3382.94,3056.01,3519.38,600.12,590.68,18.28,0000 0000 0000 0000 000000
2018-05-31 00:35:54,0.00,0.11,0.00,23.90,27.56,30.68,13.80,46.44,1010.29,2026.16,3382.71,3056.00,3519.08,599.87,590.46,18.33,0000 0000 0000 0000 000000
2018-05-31 00:40:55,0.00,0.11,0.00,23.90,27.57,30.70,13.83,46.46,1010.29,2026.16,3382.34,3056.00,3519.03,600.00,590.33,18.38,0000 0000 0000 0000 000000
2018-05-31 00:45:56,-0.00,0.11,0.00,23.92,27.58,30.70,13.91,46.57,1010.28,2026.08,3382.03,3055.99,3519.00,600.40,590.85,18.43,0000 0000 0000 0000 000000
2018-05-31 00:50:58,0.00,0.11,0.00,23.94,27.60,30.70,13.84,46.47,1010.27,2026.03,3381.92,3055.90,3518.94,600.08,590.34,18.48,0000 0000 0000 0000 000000
2018-05-31 00:55:59,0.13,0.12,0.00,23.95,27.60,30.70,13.86,46.45,1010.27,2026.02,3378.95,3054.21,3517.22,600.18,590.56,18.53,0000 0000 0000 0000 000000
2018-05-31 01:01:00,0.00,0.12,0.00,23.96,27.62,30.76,13.76,46.47,1010.27,2026.01,3378.08,3053.99,3516.96,599.91,590.29,18.58,0000 0000 0000 0000 000000
2018-05-31 01:06:01,0.02,0.12,0.00,23.97,27.62,30.76,13.76,46.54,1010.27,2026.00,3378.00,3053.77,3516.46,599.57,589.96,18.63,0000 0000 0000 0000 000000
2018-05-31 01:11:03,0.02,0.12,0.00,23.99,27.65,30.73,13.91,46.49,1010.27,2026.00,3377.93,3053.13,3516.02,600.33,590.74,18.68,0000 0000 0000 0000 000000
2018-05-31 01:16:04,0.01,0.12,0.00,24.01,27.65,30.74,13.75,46.39,1010.27,2026.00,3377.36,3053.01,3516.00,599.88,590.18,18.73,0000 0000 0000 0000 000000
2018-05-31 01:21:06,0.00,0.12,0.00,24.02,27.67,30.77,13.78,46.42,1010.25,2025.99,3377.01,3053.00,3515.96,599.92,590.23,18.78,0000 0000 0000 0000 000000
2018-05-31 01:26:07,0.01,0.12,0.00,24.03,27.67,30.78,13.78,46.43,1010.20,2025.99,3377.00,3052.97,3515.45,600.13,590.34,18.83,0000 0000 0000 0000 000000
2018-05-31 01:31:08,0.02,0.12,0.00,24.07,27.70,30.80,13.80,46.42,1010.20,2025.99,3376.86,3052.69,3515.03,600.17,590.37,18.88,0000 0000 0000 0000 000000
2018-05-31 01:36:09,0.02,0.12,0.00,24.08,27.70,30.79,13.72,46.43,1010.20,2025.98,3376.24,3052.11,3514.99,599.99,590.13,18.93,0000 0000 0000 0000 000000
2018-05-31 01:41:10,0.00,0.12,0.00,24.11,27.72,30.81,13.80,46.39,1010.17,2025.97,3376.00,3052.00,3514.87,599.93,589.89,18.98,0000 0000 0000 0000 000000
2018-05-31 01:46:12,0.00,0.12,0.00,24.14,27.73,30.82,13.74,46.43,1010.07,2025.93,3375.98,3051.99,3514.30,599.78,589.68,19.03,0000 0000 0000 0000 000000
2018-05-31 01:51:14,0.01,0.12,0.00,24.15,27.75,30.84,13.79,46.52,1009.95,2025.85,3375.55,3051.93,3514.01,599.81,589.57,19.08,0000 0000 0000 0000 000000
2018-05-31 01:56:15,0.01,0.12,0.00,24.17,27.76,30.84,13.78,46.42,1010.05,2025.81,3375.05,3051.47,3513.98,599.88,589.73,19.13,0000 0000 0000 0000 000000
2018-05-31 02:01:16,-0.01,0.12,0.00,24.18,27.78,30.82,13.88,46.53,1009.94,2025.58,3375.00,3051.05,3513.81,600.10,589.81,19.18,0000 0000 0000 0000 000000
2018-05-31 02:06:17,-0.01,0.12,0.00,24.20,27.80,30.88,13.71,46.38,1010.03,2025.40,3374.94,3051.00,3513.17,599.76,589.59,19.23,0000 0000 0000 0000 000000
2018-05-31 02:11:18,0.00,0.12,0.00,24.21,27.81,30.88,13.82,46.38,1009.94,2025.16,3374.38,3050.99,3513.00,600.10,589.80,19.28,0000 0000 0000 0000 000000
2018-05-31 02:16:20,0.00,0.12,0.00,24.24,27.82,30.87,13.82,46.42,1009.84,2025.09,3374.03,3050.76,3512.97,600.16,589.86,19.33,0000 0000 0000 0000 000000
2018-05-31 02:21:21,0.02,0.12,0.00,24.25,27.84,30.91,13.80,46.41,1009.83,2025.01,3373.97,3050.08,3512.32,600.00,589.62,19.38,0000 0000 0000 0000 000000
2018-05-31 02:26:22,0.01,0.12,0.00,24.28,27.85,30.89,13.78,46.39,1009.86,2025.00,3373.52,3050.01,3512.02,599.94,589.42,19.43,0000 0000 0000 0000 000000
2018-05-31 02:31:23,0.00,0.13,0.00,24.30,27.87,30.97,13.77,46.46,1009.85,2025.00,3373.02,3049.97,3511.98,599.85,589.27,19.48,0000 0000 0000 0000 000000
2018-05-31 02:36:24,0.02,0.13,0.00,24.31,27.89,30.96,13.81,46.45,1009.83,2025.00,3372.99,3049.62,3511.47,600.22,589.63,19.53,0000 0000 0000 0000 000000
2018-05-31 02:41:25,0.01,0.13,0.00,24.33,27.90,31.00,13.75,46.48,1009.84,2024.99,3372.82,3049.12,3511.05,599.88,589.37,19.58,0000 0000 0000 0000 000000
2018-05-31 02:46:26,0.01,0.13,0.00,24.36,27.92,30.95,13.74,46.46,1009.84,2024.97,3372.09,3049.01,3510.99,599.73,589.02,19.63,0000 0000 0000 0000 000000
2018-05-31 02:51:28,0.00,0.13,0.00,24.37,27.94,30.94,13.80,46.42,1009.86,2024.98,3372.00,3049.00,3510.84,600.36,589.65,19.68,0000 0000 0000 0000 000000
2018-05-31 02:56:29,0.01,0.13,0.00,24.40,27.95,30.99,13.85,46.38,1009.96,2024.95,3371.96,3048.91,3510.14,600.14,589.53,19.73,0000 0000 0000 0000 000000
2018-05-31 03:01:30,0.02,0.13,0.00,24.43,27.97,31.02,13.87,46.42,1010.06,2024.93,3371.42,3048.30,3510.00,600.21,589.53,19.78,0000 0000 0000 0000 000000
2018-05-31 03:06:32,-0.01,0.13,0.00,24.45,27.99,31.02,13.78,46.41,1010.21,2024.78,3371.03,3048.01,3509.97,599.98,589.43,19.83,0000 0000 0000 0000 000000
2018-05-31 03:11:34,-0.00,0.13,0.00,24.49,28.01,31.02,13.75,46.32,1010.23,2024.58,3370.99,3048.00,3509.38,600.16,589.24,19.88,0000 0000 0000 0000 000000
2018-05-31 03:16:35,-0.02,0.13,0.00,24.51,28.02,31.04,13.72,46.39,1010.24,2024.26,3370.77,3047.97,3509.01,600.07,589.46,19.93,0000 0000 0000 0000 000000
2018-05-31 03:21:36,0.01,0.13,0.00,24.52,28.05,31.03,13.70,46.38,1010.24,2024.13,3370.12,3047.56,3508.99,599.52,588.78,19.98,0000 0000 0000 0000 000000
2018-05-31 03:26:37,0.00,0.13,0.00,24.58,28.06,31.08,13.79,46.40,1010.25,2024.04,3370.00,3047.03,3508.64,599.88,589.04,20.03,0000 0000 0000 0000 000000
2018-05-31 03:31:39,0.01,0.13,0.00,24.57,28.08,31.05,13.79,46.37,1010.25,2024.02,3369.89,3047.00,3508.06,600.02,589.26,20.08,0000 0000 0000 0000 000000
2018-05-31 03:36:40,0.01,0.13,0.00,24.58,28.10,31.07,13.69,46.36,1010.26,2024.00,3369.18,3046.84,3507.98,599.54,588.76,20.13,0000 0000 0000 0000 000000
2018-05-31 03:41:41,0.03,0.13,0.00,24.60,28.12,31.10,13.78,46.44,1010.26,2024.00,3368.98,3046.10,3507.35,599.98,589.09,20.18,0000 0000 0000 0000 000000
2018-05-31 03:46:42,0.01,0.13,0.00,24.62,28.14,31.13,13.77,46.41,1010.27,2024.00,3368.57,3046.00,3507.01,599.87,589.03,20.23,0000 0000 0000 0000 000000
2018-05-31 03:51:43,0.00,0.13,0.00,24.65,28.16,31.15,13.72,46.42,1010.27,2023.99,3368.06,3045.95,3506.95,600.09,589.25,20.28,0000 0000 0000 0000 000000
2018-05-31 03:56:45,0.03,0.13,0.00,24.67,28.17,31.15,13.73,46.33,1010.27,2023.96,3367.98,3045.30,3506.21,599.87,588.67,20.33,0000 0000 0000 0000 000000
2018-05-31 04:01:46,-0.00,0.14,0.00,24.70,28.19,31.15,13.75,46.42,1010.27,2023.83,3367.38,3045.01,3506.01,599.66,588.63,20.38,0000 0000 0000 0000 000000
2018-05-31 04:06:47,-0.01,0.14,0.00,24.71,28.21,31.18,13.71,46.39,1010.27,2023.70,3367.01,3045.00,3505.92,599.89,588.83,20.43,0000 0000 0000 0000 000000
2018-05-31 04:11:48,-0.02,0.13,0.00,24.72,28.23,31.22,13.75,46.41,1010.27,2023.28,3366.97,3044.76,3505.26,600.03,588.85,20.48,0000 0000 0000 0000 000000
2018-05-31 04:16:49,0.02,0.13,0.00,24.74,28.25,31.25,13.76,46.41,1010.27,2023.05,3366.60,3044.11,3505.00,600.01,588.90,20.53,0000 0000 0000 0000 000000
2018-05-31 04:21:50,0.01,0.13,0.00,24.75,28.27,31.29,13.84,46.44,1010.27,2023.02,3366.03,3044.00,3504.82,600.14,588.90,20.59,0000 0000 0000 0000 000000
2018-05-31 04:26:52,0.02,0.14,0.00,24.76,28.29,31.27,13.75,46.33,1010.27,2023.01,3365.84,3043.94,3504.09,599.98,588.83,20.64,0000 0000 0000 0000 000000
2018-05-31 04:31:53,0.03,0.14,0.00,24.78,28.31,31.33,13.72,46.36,1010.27,2023.00,3365.15,3043.34,3503.99,600.01,588.73,20.69,0000 0000 0000 0000 000000
2018-05-31 04:36:55,0.01,0.14,0.00,24.80,28.32,31.38,13.80,46.33,1010.27,2023.00,3365.00,3043.01,3503.65,600.26,589.03,20.74,0000 0000 0000 0000 000000
2018-05-31 04:41:56,0.01,0.14,0.00,24.82,28.35,31.39,13.76,46.38,1010.28,2022.97,3364.80,3042.98,3503.04,600.07,588.78,20.79,0000 0000 0000 0000 000000
2018-05-31 04:46:58,0.01,0.14,0.00,24.82,28.36,31.37,13.74,46.38,1010.27,2022.96,3364.11,3042.75,3502.99,599.91,588.65,20.84,0000 0000 0000 0000 000000
2018-05-31 04:51:59,0.01,0.14,0.00,24.85,28.37,31.40,13.71,46.34,1010.28,2022.91,3364.00,3042.22,3502.83,599.91,588.49,20.89,0000 0000 0000 0000 000000
2018-05-31 04:57:01,0.01,0.14,0.00,24.86,28.40,31.42,13.76,46.35,1010.28,2022.92,3363.99,3042.02,3502.22,600.18,588.80,20.94,0000 0000 0000 0000 000000
2018-05-31 05:02:02,-0.02,0.14,0.00,24.87,28.41,31.44,13.74,46.37,1010.32,2022.63,3363.49,3041.99,3502.00,600.05,588.77,20.99,0000 0000 0000 0000 000000
2018-05-31 05:07:03,-0.02,0.14,0.00,24.88,28.43,31.47,13.85,46.42,1010.34,2022.12,3363.01,3041.77,3501.79,600.09,588.78,21.04,0000 0000 0000 0000 000000
2018-05-31 05:12:04,0.02,0.14,0.00,24.90,28.45,31.47,13.71,46.34,1010.34,2022.01,3362.99,3041.21,3501.15,599.86,588.44,21.09,0000 0000 0000 0000 000000
2018-05-31 05:17:05,0.01,0.14,0.00,24.91,28.47,31.49,13.76,46.36,1010.40,2022.00,3362.75,3041.00,3501.00,599.95,588.52,21.14,0000 0000 0000 0000 000000
2018-05-31 05:22:07,0.00,0.14,0.00,24.92,28.48,31.53,13.65,46.30,1010.51,2022.00,3362.18,3041.00,3500.99,599.66,588.23,21.19,0000 0000 0000 0000 000000
2018-05-31 05:27:08,0.01,0.14,0.00,24.93,28.50,31.53,13.73,46.36,1010.56,2022.00,3362.01,3040.97,3500.55,599.82,588.46,21.24,0000 0000 0000 0000 000000
2018-05-31 05:32:09,0.01,0.14,0.00,24.95,28.52,31.54,13.77,46.41,1010.48,2022.00,3361.99,3040.77,3500.13,600.22,588.70,21.29,0000 0000 0000 0000 000000
2018-05-31 05:37:10,0.02,0.14,0.00,24.96,28.53,31.58,13.71,46.31,1010.50,2021.98,3361.56,3040.08,3500.00,599.84,588.37,21.34,0000 0000 0000 0000 000000
2018-05-31 05:42:12,0.00,0.14,0.00,24.97,28.55,31.61,13.72,46.40,1010.60,2021.97,3361.05,3040.00,3499.96,599.58,588.18,21.39,0000 0000 0000 0000 000000
2018-05-31 05:47:13,0.01,0.14,0.00,25.00,28.57,31.61,13.85,46.36,1010.74,2021.94,3361.00,3040.00,3499.42,600.08,588.75,21.44,0000 0000 0000 0000 000000
2018-05-31 05:52:14,-0.01,0.14,0.00,25.00,28.58,31.64,13.75,46.39,1010.75,2021.80,3360.83,3039.91,3499.01,599.91,588.43,21.49,0000 0000 0000 0000 000000
2018-05-31 05:57:15,0.00,0.14,0.00,25.01,28.60,31.63,13.79,46.44,1010.75,2021.53,3360.29,3039.38,3498.99,600.26,588.96,21.54,0000 0000 0000 0000 000000
2018-05-31 06:02:17,-0.00,0.14,0.00,25.02,28.62,31.66,13.77,46.45,1010.74,2021.36,3360.00,3039.03,3498.93,600.16,588.73,21.59,0000 0000 0000 0000 000000
2018-05-31 06:07:18,0.02,0.14,0.00,25.04,28.63,31.65,13.74,46.46,1010.75,2021.55,3359.99,3039.01,3498.51,599.88,588.28,21.64,0000 0000 0000 0000 000000
2018-05-31 06:12:20,-0.02,0.14,0.00,25.05,28.65,31.72,13.65,46.38,1010.76,2021.29,3359.86,3038.99,3498.05,599.78,588.38,21.69,0000 0000 0000 0000 000000
2018-05-31 06:17:21,0.01,0.14,0.00,25.05,28.66,31.74,13.79,46.27,1010.76,2021.09,3359.12,3038.69,3498.00,599.86,588.48,21.74,0000 0000 0000 0000 000000
2018-05-31 06:22:22,0.02,0.14,0.00,25.06,28.67,31.76,13.72,46.36,1010.76,2021.07,3359.00,3038.17,3497.96,599.97,588.61,21.79,0000 0000 0000 0000 000000
2018-05-31 06:27:23,0.00,0.14,0.00,25.07,28.70,31.78,13.83,46.37,1010.76,2021.02,3358.99,3038.01,3497.46,600.27,588.67,21.84,0000 0000 0000 0000 000000
2018-05-31 06:32:25,0.01,0.15,0.00,25.08,28.71,31.79,13.77,46.28,1010.76,2021.02,3358.83,3038.00,3497.15,600.06,588.65,21.89,0000 0000 0000 0000 000000
2018-05-31 06:37:26,0.00,0.15,0.00,25.08,28.72,31.80,13.75,46.32,1010.76,2021.00,3358.10,3037.98,3497.01,599.94,588.34,21.94,0000 0000 0000 0000 000000
2018-05-31 06:42:28,0.01,0.15,0.00,25.09,28.74,31.78,13.72,46.37,1010.76,2021.00,3358.00,3037.69,3497.00,599.71,588.27,21.99,0000 0000 0000 0000 000000
2018-05-31 06:47:29,0.01,0.15,0.00,25.10,28.75,31.79,13.75,46.33,1010.76,2021.00,3357.99,3037.30,3496.84,599.87,588.32,22.04,0000 0000 0000 0000 000000
2018-05-31 06:52:30,0.01,0.15,0.00,25.10,28.76,31.82,13.70,46.35,1010.77,2021.00,3357.91,3037.03,3496.29,599.86,588.27,22.09,0000 0000 0000 0000 000000
2018-05-31 06:57:32,0.00,0.15,0.00,25.11,28.77,31.83,13.75,46.33,1010.81,2021.00,3357.68,3037.00,3496.03,599.92,588.35,22.14,0000 0000 0000 0000 000000
2018-05-31 07:02:33,0.00,0.15,0.00,25.12,28.79,31.86,13.73,46.35,1010.81,2020.99,3357.16,3037.00,3496.00,600.19,588.57,22.19,0000 0000 0000 0000 000000
2018-05-31 07:07:35,0.00,0.15,0.00,25.13,28.80,31.90,13.72,46.34,1010.79,2020.99,3357.02,3036.99,3496.00,599.95,588.34,22.24,0000 0000 0000 0000 000000
2018-05-31 07:12:36,0.01,0.15,0.00,25.15,28.81,31.91,13.84,46.39,1010.80,2020.98,3357.00,3036.85,3495.93,600.31,588.77,22.29,0000 0000 0000 0000 000000
2018-05-31 07:17:37,0.01,0.15,0.00,25.15,28.82,31.91,13.67,46.32,1010.85,2020.97,3356.95,3036.44,3495.50,600.13,588.40,22.34,0000 0000 0000 0000 000000
2018-05-31 07:22:38,0.01,0.15,0.00,25.16,28.84,31.92,13.80,46.35,1010.95,2020.98,3356.86,3036.37,3495.35,599.79,588.22,22.39,0000 0000 0000 0000 000000
2018-05-31 07:27:40,0.01,0.15,0.00,25.17,28.85,31.95,13.67,46.25,1010.96,2020.93,3356.33,3036.02,3495.01,599.72,588.27,22.44,0000 0000 0000 0000 000000
2018-05-31 07:32:41,-0.01,0.15,0.00,25.17,28.86,31.97,13.84,46.32,1011.15,2020.79,3356.03,3036.00,3495.00,600.44,588.66,22.49,0000 0000 0000 0000 000000
2018-05-31 07:37:42,-0.00,0.15,0.00,25.17,28.87,31.98,13.78,46.35,1011.23,2020.73,3356.01,3036.00,3495.00,600.22,588.77,22.54,0000 0000 0000 0000 000000
2018-05-31 07:42:43,-0.04,0.15,0.00,25.17,28.88,31.96,13.76,46.36,1011.24,2020.57,3355.98,3036.00,3494.93,600.13,588.68,22.59,0000 0000 0000 0000 000000
2018-05-31 07:47:45,-0.00,0.15,0.00,25.17,28.90,31.96,13.82,46.43,1011.24,2020.40,3355.97,3035.98,3494.77,600.05,588.63,22.64,0000 0000 0000 0000 000000
2018-05-31 07:52:46,0.01,0.15,0.00,25.18,28.90,31.99,13.79,46.38,1011.24,2020.05,3355.70,3035.68,3494.11,599.80,588.48,22.69,0000 0000 0000 0000 000000
2018-05-31 07:57:47,0.01,0.15,0.00,25.19,28.91,32.01,13.77,46.32,1011.24,2020.02,3355.23,3035.19,3494.00,599.94,588.61,22.74,0000 0000 0000 0000 000000
2018-05-31 08:02:49,0.01,0.15,0.00,25.20,28.92,31.98,13.77,46.34,1011.24,2020.03,3355.05,3035.09,3494.00,600.20,588.77,22.79,0000 0000 0000 0000 000000
2018-05-31 08:07:50,-0.00,0.15,0.00,25.21,28.92,31.99,13.76,46.33,1011.24,2020.01,3355.00,3035.02,3494.00,600.03,588.43,22.84,0000 0000 0000 0000 000000
2018-05-31 08:12:51,0.00,0.15,0.00,25.20,28.94,32.02,13.78,46.33,1011.24,2020.00,3354.99,3035.00,3493.94,600.08,588.42,22.89,0000 0000 0000 0000 000000
2018-05-31 08:17:52,0.00,0.15,0.00,25.21,28.95,32.03,13.74,46.33,1011.24,2020.00,3354.87,3034.98,3493.68,599.92,588.47,22.94,0000 0000 0000 0000 000000
2018-05-31 08:22:53,0.02,0.15,0.00,25.20,28.95,32.07,13.79,46.27,1011.25,2020.00,3354.16,3034.93,3493.09,600.24,588.74,22.99,0000 0000 0000 0000 000000
2018-05-31 08:27:55,0.00,0.15,0.00,25.21,28.97,32.08,13.74,46.32,1011.25,2020.00,3354.03,3034.80,3493.02,599.84,588.37,23.04,0000 0000 0000 0000 000000
2018-05-31 08:32:56,0.00,0.15,0.00,25.21,28.97,32.10,13.73,46.35,1011.25,2020.00,3354.00,3034.56,3493.00,599.89,588.33,23.09,0000 0000 0000 0000 000000
2018-05-31 08:37:58,0.07,0.15,0.00,25.20,28.97,32.07,13.75,46.30,1011.25,2020.00,3353.06,3033.70,3492.51,599.91,588.43,23.14,0000 0000 0000 0000 000000
2018-05-31 08:42:59,0.01,0.16,0.00,25.20,28.99,32.05,13.75,46.37,1011.26,2020.00,3351.99,3033.02,3491.83,600.07,588.75,23.19,0000 0000 0000 0000 000000
2018-05-31 08:48:00,0.01,0.16,0.00,25.21,29.00,32.10,13.79,46.32,1011.27,2020.00,3351.83,3033.00,3491.26,599.89,588.41,23.24,0000 0000 0000 0000 000000
2018-05-31 08:53:02,0.01,0.16,0.00,25.22,29.00,32.08,13.79,46.27,1011.28,2019.99,3351.46,3033.00,3491.06,600.02,588.55,23.29,0000 0000 0000 0000 000000
2018-05-31 08:58:03,0.00,0.16,0.00,25.20,29.00,32.07,13.85,46.27,1011.31,2019.99,3351.07,3032.98,3491.01,600.13,588.57,23.34,0000 0000 0000 0000 000000
2018-05-31 09:03:04,0.00,0.16,0.00,25.21,29.01,32.09,13.75,46.27,1011.34,2019.99,3351.00,3032.95,3491.00,599.90,588.47,23.39,0000 0000 0000 0000 000000
2018-05-31 09:08:06,0.01,0.16,0.00,25.22,29.02,32.10,13.79,46.27,1011.40,2019.99,3351.00,3032.60,3490.99,600.20,588.77,23.44,0000 0000 0000 0000 000000
2018-05-31 09:13:07,0.01,0.16,0.00,25.20,29.02,32.10,13.76,46.34,1011.39,2019.98,3350.98,3032.09,3490.95,599.97,588.54,23.49,0000 0000 0000 0000 000000
2018-05-31 09:18:09,0.00,0.16,0.00,25.20,29.02,32.13,13.68,46.27,1011.63,2019.98,3350.78,3032.02,3490.75,599.83,588.58,23.54,0000 0000 0000 0000 000000
2018-05-31 09:23:10,0.01,0.16,0.00,25.20,29.02,32.13,13.74,46.27,1011.61,2019.97,3350.30,3032.01,3490.29,599.90,588.69,23.59,0000 0000 0000 0000 000000
2018-05-31 09:28:11,0.00,0.16,0.00,25.20,29.02,32.11,13.72,46.33,1011.59,2019.98,3350.07,3032.00,3490.07,599.63,588.34,23.64,0000 0000 0000 0000 000000
2018-05-31 09:33:13,0.00,0.16,0.00,25.20,29.03,32.14,13.87,46.33,1011.65,2019.98,3350.02,3032.00,3490.04,600.20,588.90,23.69,0000 0000 0000 0000 000000
2018-05-31 09:38:14,-0.00,0.16,0.00,25.20,29.04,32.15,13.75,46.23,1011.72,2019.97,3350.00,3032.00,3490.00,600.00,588.74,23.74,0000 0000 0000 0000 000000
2018-05-31 09:43:15,-0.00,0.16,0.00,25.19,29.05,32.14,13.75,46.27,1011.73,2019.98,3349.99,3031.99,3489.99,599.70,588.52,23.79,0000 0000 0000 0000 000000
2018-05-31 09:48:17,0.00,0.16,0.00,25.18,29.05,32.14,13.81,46.30,1011.73,2019.97,3349.98,3031.97,3489.99,599.97,588.77,23.84,0000 0000 0000 0000 000000
2018-05-31 09:53:18,0.00,0.16,0.00,25.17,29.05,32.12,13.82,46.38,1011.73,2019.96,3349.89,3031.88,3489.97,600.11,588.99,23.89,0000 0000 0000 0000 000000
2018-05-31 09:58:19,0.01,0.16,0.00,25.17,29.05,32.14,13.77,46.29,1011.73,2019.98,3349.55,3031.67,3489.91,600.01,588.86,23.94,0000 0000 0000 0000 000000
2018-05-31 10:03:21,0.02,0.16,0.00,25.18,29.05,32.14,13.74,46.32,1011.73,2019.98,3349.36,3031.50,3489.70,600.09,588.93,23.99,0000 0000 0000 0000 000000
2018-05-31 10:08:22,0.01,0.16,0.00,25.16,29.05,32.12,13.76,46.30,1011.73,2019.96,3349.04,3031.16,3489.24,599.74,588.67,24.04,0000 0000 0000 0000 000000
2018-05-31 10:13:23,0.00,0.16,0.00,25.16,29.05,32.16,13.81,46.33,1011.73,2019.98,3349.01,3031.03,3489.03,600.09,589.02,24.09,0000 0000 0000 0000 000000
2018-05-31 10:18:24,0.00,0.16,0.00,25.16,29.05,32.16,13.79,46.29,1011.73,2019.97,3349.00,3031.01,3489.00,600.07,589.05,24.14,0000 0000 0000 0000 000000
2018-05-31 10:23:26,-0.00,0.16,0.00,25.15,29.05,32.14,13.80,46.31,1011.73,2019.96,3349.00,3031.00,3489.00,600.24,589.08,24.19,0000 0000 0000 0000 000000
2018-05-31 10:28:27,-0.00,0.16,0.00,25.14,29.05,32.15,13.74,46.32,1011.73,2019.97,3348.88,3031.00,3489.00,599.80,588.66,24.24,0000 0000 0000 0000 000000
2018-05-31 10:33:29,0.00,0.16,0.00,25.13,29.05,32.14,13.85,46.38,1011.73,2019.97,3348.45,3030.98,3488.97,600.15,588.91,24.29,0000 0000 0000 0000 000000
2018-05-31 10:38:30,0.01,0.16,0.00,25.12,29.05,32.14,13.80,46.34,1011.73,2019.96,3348.11,3030.96,3488.93,599.97,588.73,24.34,0000 0000 0000 0000 000000
2018-05-31 10:43:31,-0.00,0.16,0.00,25.12,29.05,32.12,13.76,46.32,1011.74,2019.97,3348.06,3030.92,3488.88,599.75,588.69,24.39,0000 0000 0000 0000 000000
2018-05-31 10:48:32,0.01,0.16,0.00,25.12,29.05,32.14,13.83,46.33,1011.75,2019.95,3348.02,3030.79,3488.57,600.02,589.09,24.44,0000 0000 0000 0000 000000
2018-05-31 10:53:34,0.02,0.17,0.00,25.12,29.05,32.13,13.80,46.33,1011.76,2019.93,3348.00,3030.29,3488.07,599.80,588.92,24.49,0000 0000 0000 0000 000000
2018-05-31 10:58:35,-0.00,0.17,0.00,25.10,29.05,32.15,13.75,46.24,1011.77,2019.86,3348.00,3030.10,3488.01,599.93,589.17,24.54,0000 0000 0000 0000 000000
2018-05-31 11:03:36,0.01,0.17,0.00,25.10,29.04,32.13,13.81,46.33,1011.79,2019.96,3348.00,3030.10,3488.03,600.31,589.38,24.59,0000 0000 0000 0000 000000
2018-05-31 11:08:37,0.00,0.17,0.00,25.09,29.04,32.13,13.84,46.33,1011.85,2019.96,3348.00,3030.06,3488.01,600.35,589.29,24.65,0000 0000 0000 0000 000000
2018-05-31 11:13:38,0.00,0.17,0.00,25.08,29.03,32.11,13.76,46.33,1011.85,2019.95,3347.99,3030.03,3488.01,600.23,589.22,24.70,0000 0000 0000 0000 000000
2018-05-31 11:18:40,-0.00,0.17,0.00,25.07,29.02,32.11,13.74,46.33,1011.97,2019.94,3347.97,3030.00,3488.00,599.78,588.94,24.75,0000 0000 0000 0000 000000
2018-05-31 11:23:41,-0.00,0.17,0.00,25.07,29.02,32.12,13.78,46.41,1011.98,2019.93,3347.83,3030.00,3487.99,600.03,589.24,24.80,0000 0000 0000 0000 000000
2018-05-31 11:28:42,0.00,0.17,0.00,25.05,29.02,32.13,13.76,46.30,1011.98,2019.92,3347.66,3030.00,3487.98,599.88,589.22,24.85,0000 0000 0000 0000 000000
2018-05-31 11:33:44,0.01,0.17,0.00,25.03,29.02,32.11,13.80,46.29,1011.93,2019.98,3347.25,3030.00,3487.98,600.03,589.28,24.90,0000 0000 0000 0000 000000
2018-05-31 11:38:45,0.00,0.17,0.00,25.02,29.02,32.11,13.88,46.31,1012.15,2019.96,3347.07,3029.99,3487.94,600.27,589.70,24.95,0000 0000 0000 0000 000000
2018-05-31 11:43:46,0.00,0.17,0.00,25.02,29.01,32.10,13.84,46.33,1012.20,2019.97,3347.08,3029.99,3487.88,600.23,589.66,25.00,0000 0000 0000 0000 000000
2018-05-31 11:48:47,-0.00,0.17,0.00,25.02,29.00,32.11,13.83,46.39,1012.21,2019.98,3347.11,3029.99,3487.97,599.94,589.38,25.05,0000 0000 0000 0000 000000
2018-05-31 11:53:48,0.00,0.17,0.00,25.01,29.00,32.07,13.78,46.42,1012.22,2019.97,3347.03,3029.98,3487.75,600.14,589.52,25.10,0000 0000 0000 0000 000000
2018-05-31 11:58:50,0.01,0.17,0.00,25.00,29.00,32.08,13.78,46.40,1012.22,2019.97,3347.00,3029.96,3487.36,600.14,589.68,25.15,0000 0000 0000 0000 000000
2018-05-31 12:03:51,0.00,0.17,0.00,24.99,29.00,32.08,13.81,46.38,1012.22,2019.98,3347.00,3029.97,3487.13,600.12,589.54,25.20,0000 0000 0000 0000 000000
2018-05-31 12:08:52,0.00,0.17,0.00,24.97,28.99,32.09,13.75,46.42,1012.21,2019.97,3347.00,3029.84,3487.08,599.52,589.08,25.25,0000 0000 0000 0000 000000
2018-05-31 12:13:54,0.00,0.17,0.00,24.97,28.97,32.08,13.71,46.32,1012.21,2019.98,3347.00,3029.80,3487.04,599.80,589.31,25.30,0000 0000 0000 0000 000000
2018-05-31 12:18:55,0.00,0.17,0.00,24.95,28.97,32.07,13.78,46.42,1012.21,2019.98,3346.99,3029.75,3487.02,599.71,589.25,25.35,0000 0000 0000 0000 000000
2018-05-31 12:23:56,0.00,0.17,0.00,24.95,28.97,32.06,13.82,46.47,1012.13,2019.99,3346.99,3029.73,3487.02,599.73,589.36,25.40,0000 0000 0000 0000 000000
2018-05-31 12:28:58,0.01,0.17,0.00,24.93,28.96,32.05,13.80,46.33,1012.09,2019.99,3346.98,3029.33,3487.00,600.26,589.68,25.45,0000 0000 0000 0000 000000
2018-05-31 12:33:59,0.00,0.17,0.00,24.92,28.95,32.05,13.80,46.42,1012.11,2019.99,3346.97,3029.17,3487.00,599.92,589.42,25.50,0000 0000 0000 0000 000000
2018-05-31 12:39:00,0.00,0.17,0.00,24.91,28.95,32.02,13.82,46.40,1012.10,2019.99,3346.84,3029.05,3486.99,599.89,589.37,25.55,0000 0000 0000 0000 000000
2018-05-31 12:44:02,0.00,0.17,0.00,24.90,28.95,32.04,13.76,46.42,1012.12,2019.99,3346.69,3029.04,3486.99,600.01,589.67,25.60,0000 0000 0000 0000 000000
2018-05-31 12:49:03,0.00,0.17,0.00,24.89,28.93,32.03,13.82,46.46,1012.11,2019.99,3346.42,3029.02,3486.97,599.87,589.51,25.65,0000 0000 0000 0000 000000
2018-05-31 12:54:04,0.00,0.17,0.00,24.89,28.92,32.01,13.79,46.42,1012.18,2019.99,3346.24,3029.01,3486.97,600.13,589.76,25.70,0000 0000 0000 0000 000000